Location: Quedlinburg
(51.7921°N, 11.1414°E)
Time: 08:24:12
(UTC+02:00)

SO-50 - Pass Details

Date: 11 March 2026
Orbit: 567 x 673 km, 64.6° (Epoch: 13 April)

Event Time Altitude Azimuth Distance (km) Brightness Sun altitude
Rises 21:27:31 0° 258° (WSW) 2,963 ? -29.2°
Reaches altitude 10° 21:30:02 10° 269° (W) 2,070 ? -29.5°
Maximum altitude 21:34:13 31° 331° (NNW) 1,180 ? -30.0°
Enters shadow 21:36:13 22° 12° (NNE) 1,441 ? -30.3°
